User: anonymous
Location: Ostrava
(49.8330°N, 18.2830°E)
Time: 13:04:46
(UTC+02:00)
Language:

Cosmos 1263 Rocket - Orbit

View from above orbital plane
View from above orbital plane
View from above satellite
View from above satellite

Ground track
Ground track

The orbit data is extracted from the following two-line orbital elements,

1 12389U 81033B   14107.96441944  .00044671  00000-0  74033-3 0  9444
2 12389 082.8762 165.4459 0223625 330.0157 112.3093 15.28617109700524
Epoch (UTC): 17 April 2014 23:08:45
Eccentricity: 0.0223625
inclination: 82.8762°
perigee height: 326 km
apogee height: 633 km
right ascension of ascending node: 165.4459°
argument of perigee: 330.0157°
revolutions per day: 15.28617109
mean anomaly at epoch: 112.3093°
orbit number at epoch: 70052

The dashed part of the orbit path shows where the satellite is in the earth's shadow,  

DLR